Time,TemperatureF,DewpointF,PressureIn,WindDirection,WindDirectionDegrees,WindSpeedMPH,WindSpeedGustMPH,Humidity,HourlyPrecipIn,Conditions,Clouds,dailyrainin,SoftwareType,DateUTC
2013-11-18 00:01:00,32.0,26.8,30.25,ENE,67,6.0,9.0,81,0.00,,,0.00,Weather View 32 v70,2013-11-18 07:01:00,
2013-11-18 00:06:00,32.0,26.8,30.25,East,90,7.0,9.0,81,0.00,,,0.00,Weather View 32 v70,2013-11-18 07:06:00,
2013-11-18 00:11:00,32.0,26.8,30.25,East,90,7.0,9.0,81,0.00,,,0.00,Weather View 32 v70,2013-11-18 07:11:00,
2013-11-18 00:15:00,32.0,26.8,30.25,East,90,5.0,9.0,81,0.00,,,0.00,Weather View 32 v70,2013-11-18 07:15:00,
2013-11-18 00:21:00,32.0,27.1,30.25,East,90,6.0,9.0,82,0.00,,,0.00,Weather View 32 v70,2013-11-18 07:21:00,
2013-11-18 00:25:00,32.0,27.1,30.25,East,90,5.0,9.0,82,0.00,,,0.00,Weather View 32 v70,2013-11-18 07:25:00,
2013-11-18 00:30:00,32.0,27.1,30.25,East,90,0.0,9.0,82,0.00,,,0.00,Weather View 32 v70,2013-11-18 07:30:00,
2013-11-18 00:35:00,32.0,27.1,30.25,East,90,1.0,9.0,82,0.00,,,0.00,Weather View 32 v70,2013-11-18 07:35:00,
2013-11-18 00:40:00,31.0,26.4,30.25,East,90,4.0,9.0,83,0.00,,,0.00,Weather View 32 v70,2013-11-18 07:40:00,
2013-11-18 00:46:00,31.0,27.0,30.26,East,90,3.0,9.0,85,0.00,,,0.00,Weather View 32 v70,2013-11-18 07:46:00,
2013-11-18 00:50:00,31.0,27.0,30.26,East,90,0.0,9.0,85,0.00,,,0.00,Weather View 32 v70,2013-11-18 07:50:00,
2013-11-18 00:56:00,31.0,27.3,30.25,East,90,3.0,9.0,86,0.00,,,0.00,Weather View 32 v70,2013-11-18 07:56:00,
2013-11-18 01:00:00,30.0,26.6,30.25,East,90,3.0,9.0,87,0.00,,,0.00,Weather View 32 v70,2013-11-18 08:00:00,
2013-11-18 01:06:00,30.0,26.6,30.26,East,90,4.0,9.0,87,0.00,,,0.00,Weather View 32 v70,2013-11-18 08:06:00,
2013-11-18 01:10:00,30.0,26.6,30.26,East,90,5.0,9.0,87,0.00,,,0.00,Weather View 32 v70,2013-11-18 08:10:00,
2013-11-18 01:15:00,30.0,27.2,30.25,East,90,7.0,8.0,89,0.00,,,0.00,Weather View 32 v70,2013-11-18 08:15:00,
2013-11-18 01:20:00,29.0,26.4,30.25,East,90,6.0,8.0,90,0.00,,,0.00,Weather View 32 v70,2013-11-18 08:20:00,
2013-11-18 01:25:00,29.0,27.0,30.26,East,90,5.0,8.0,92,0.00,,,0.00,Weather View 32 v70,2013-11-18 08:25:00,
2013-11-18 01:30:00,29.0,27.0,30.26,East,90,6.0,9.0,92,0.00,,,0.00,Weather View 32 v70,2013-11-18 08:30:00,
2013-11-18 01:35:00,29.0,27.0,30.26,East,90,7.0,9.0,92,0.00,,,0.00,Weather View 32 v70,2013-11-18 08:35:00,
2013-11-18 01:40:00,29.0,27.0,30.26,East,90,7.0,10.0,92,0.00,,,0.00,Weather View 32 v70,2013-11-18 08:40:00,
2013-11-18 01:45:00,29.0,27.0,30.26,East,90,5.0,10.0,92,0.00,,,0.00,Weather View 32 v70,2013-11-18 08:45:00,
2013-11-18 01:50:00,29.0,27.0,30.26,East,90,4.0,10.0,92,0.00,,,0.00,Weather View 32 v70,2013-11-18 08:50:00,
2013-11-18 01:55:00,29.0,27.0,30.26,East,90,4.0,10.0,92,0.00,,,0.00,Weather View 32 v70,2013-11-18 08:55:00,
2013-11-18 02:00:00,29.0,27.0,30.26,ENE,67,4.0,10.0,92,0.00,,,0.00,Weather View 32 v70,2013-11-18 09:00:00,
2013-11-18 02:05:00,30.0,27.7,30.27,NE,45,7.0,10.0,91,0.00,,,0.00,Weather View 32 v70,2013-11-18 09:05:00,
2013-11-18 02:10:00,30.0,27.7,30.27,NE,45,4.0,10.0,91,0.00,,,0.00,Weather View 32 v70,2013-11-18 09:10:00,
2013-11-18 02:15:00,30.0,27.7,30.26,NE,45,4.0,10.0,91,0.00,,,0.00,Weather View 32 v70,2013-11-18 09:15:00,
2013-11-18 02:20:00,29.0,27.0,30.26,ENE,67,4.0,10.0,92,0.00,,,0.00,Weather View 32 v70,2013-11-18 09:20:00,
2013-11-18 02:25:00,29.0,27.2,30.26,ENE,67,3.0,10.0,93,0.00,,,0.00,Weather View 32 v70,2013-11-18 09:25:00,
2013-11-18 02:30:00,29.0,27.5,30.26,ENE,67,4.0,10.0,94,0.00,,,0.00,Weather View 32 v70,2013-11-18 09:30:00,
2013-11-18 02:35:00,29.0,27.7,30.27,ENE,67,4.0,10.0,95,0.00,,,0.00,Weather View 32 v70,2013-11-18 09:35:00,
2013-11-18 02:40:00,29.0,28.0,30.27,ENE,67,4.0,10.0,96,0.00,,,0.00,Weather View 32 v70,2013-11-18 09:40:00,
2013-11-18 02:45:00,29.0,28.0,30.27,ENE,67,4.0,9.0,96,0.00,,,0.00,Weather View 32 v70,2013-11-18 09:45:00,
2013-11-18 02:50:00,29.0,28.3,30.27,ENE,67,4.0,9.0,97,0.00,,,0.00,Weather View 32 v70,2013-11-18 09:50:00,
2013-11-18 02:55:00,29.0,28.3,30.27,ENE,67,4.0,9.0,97,0.00,,,0.00,Weather View 32 v70,2013-11-18 09:55:00,
2013-11-18 03:00:00,29.0,28.0,30.27,ENE,67,5.0,9.0,96,0.00,,,0.00,Weather View 32 v70,2013-11-18 10:00:00,
2013-11-18 03:05:00,29.0,28.0,30.27,ENE,67,5.0,9.0,96,0.00,,,0.00,Weather View 32 v70,2013-11-18 10:05:00,
2013-11-18 03:10:00,29.0,28.3,30.27,ENE,67,4.0,6.0,97,0.00,,,0.00,Weather View 32 v70,2013-11-18 10:10:00,
2013-11-18 03:15:00,29.0,28.3,30.27,ENE,67,6.0,6.0,97,0.00,,,0.00,Weather View 32 v70,2013-11-18 10:15:00,
2013-11-18 03:20:00,28.0,27.5,30.27,ENE,67,3.0,6.0,98,0.00,,,0.00,Weather View 32 v70,2013-11-18 10:20:00,
2013-11-18 03:25:00,28.0,27.5,30.27,East,90,5.0,6.0,98,0.00,,,0.00,Weather View 32 v70,2013-11-18 10:25:00,
2013-11-18 03:30:00,28.0,27.8,30.27,East,90,5.0,6.0,99,0.00,,,0.00,Weather View 32 v70,2013-11-18 10:30:00,
2013-11-18 03:35:00,28.0,27.8,30.27,East,90,5.0,7.0,99,0.00,,,0.00,Weather View 32 v70,2013-11-18 10:35:00,
2013-11-18 03:40:00,28.0,28.0,30.27,East,90,4.0,7.0,100,0.00,,,0.00,Weather View 32 v70,2013-11-18 10:40:00,
2013-11-18 03:45:00,28.0,28.0,30.27,East,90,3.0,7.0,100,0.00,,,0.00,Weather View 32 v70,2013-11-18 10:45:00,
2013-11-18 03:50:00,28.0,28.0,30.27,East,90,4.0,7.0,100,0.00,,,0.00,Weather View 32 v70,2013-11-18 10:50:00,
2013-11-18 03:55:00,28.0,27.8,30.27,East,90,5.0,7.0,99,0.00,,,0.00,Weather View 32 v70,2013-11-18 10:55:00,
2013-11-18 04:00:00,28.0,28.0,30.27,East,90,3.0,7.0,100,0.00,,,0.00,Weather View 32 v70,2013-11-18 11:00:00,
2013-11-18 04:05:00,28.0,28.0,30.27,East,90,3.0,7.0,100,0.00,,,0.00,Weather View 32 v70,2013-11-18 11:05:00,
2013-11-18 04:10:00,27.0,27.0,30.27,East,90,4.0,7.0,100,0.00,,,0.00,Weather View 32 v70,2013-11-18 11:10:00,
2013-11-18 04:15:00,27.0,27.0,30.28,East,90,2.0,7.0,100,0.00,,,0.00,Weather View 32 v70,2013-11-18 11:15:00,
2013-11-18 04:20:00,27.0,27.0,30.28,East,90,4.0,7.0,100,0.00,,,0.00,Weather View 32 v70,2013-11-18 11:20:00,
2013-11-18 04:25:00,27.0,27.0,30.28,East,90,4.0,7.0,100,0.00,,,0.00,Weather View 32 v70,2013-11-18 11:25:00,
2013-11-18 04:30:00,27.0,27.0,30.28,East,90,5.0,7.0,100,0.00,,,0.00,Weather View 32 v70,2013-11-18 11:30:00,
2013-11-18 04:35:00,27.0,27.0,30.28,East,90,5.0,6.0,100,0.00,,,0.00,Weather View 32 v70,2013-11-18 11:35:00,
2013-11-18 04:40:00,27.0,27.0,30.28,East,90,3.0,6.0,100,0.00,,,0.00,Weather View 32 v70,2013-11-18 11:40:00,
2013-11-18 04:45:00,27.0,27.0,30.28,East,90,4.0,6.0,100,0.00,,,0.00,Weather View 32 v70,2013-11-18 11:45:00,
2013-11-18 04:50:00,27.0,27.0,30.28,East,90,4.0,6.0,100,0.00,,,0.00,Weather View 32 v70,2013-11-18 11:50:00,
2013-11-18 04:55:00,27.0,27.0,30.28,East,90,3.0,6.0,100,0.00,,,0.00,Weather View 32 v70,2013-11-18 11:55:00,
2013-11-18 05:00:00,26.0,26.0,30.28,East,90,4.0,6.0,100,0.00,,,0.00,Weather View 32 v70,2013-11-18 12:00:00,
2013-11-18 05:05:00,27.0,27.0,30.28,East,90,4.0,6.0,100,0.00,,,0.00,Weather View 32 v70,2013-11-18 12:05:00,
2013-11-18 05:10:00,26.0,26.0,30.28,East,90,5.0,6.0,100,0.00,,,0.00,Weather View 32 v70,2013-11-18 12:10:00,
2013-11-18 05:15:00,27.0,27.0,30.28,East,90,4.0,6.0,100,0.00,,,0.00,Weather View 32 v70,2013-11-18 12:15:00,
2013-11-18 05:20:00,26.0,26.0,30.28,East,90,5.0,6.0,100,0.00,,,0.00,Weather View 32 v70,2013-11-18 12:20:00,
2013-11-18 05:25:00,27.0,27.0,30.28,East,90,6.0,7.0,100,0.00,,,0.00,Weather View 32 v70,2013-11-18 12:25:00,
2013-11-18 05:30:00,26.0,26.0,30.28,East,90,4.0,7.0,100,0.00,,,0.00,Weather View 32 v70,2013-11-18 12:30:00,
2013-11-18 05:35:00,27.0,27.0,30.28,East,90,5.0,7.0,100,0.00,,,0.00,Weather View 32 v70,2013-11-18 12:35:00,
2013-11-18 05:40:00,27.0,27.0,30.28,East,90,3.0,7.0,100,0.00,,,0.00,Weather View 32 v70,2013-11-18 12:40:00,
2013-11-18 05:45:00,27.0,27.0,30.29,East,90,4.0,7.0,100,0.00,,,0.00,Weather View 32 v70,2013-11-18 12:45:00,
2013-11-18 05:50:00,27.0,27.0,30.29,East,90,5.0,7.0,100,0.00,,,0.00,Weather View 32 v70,2013-11-18 12:50:00,
2013-11-18 05:55:00,27.0,27.0,30.29,East,90,5.0,7.0,100,0.00,,,0.00,Weather View 32 v70,2013-11-18 12:55:00,
2013-11-18 06:00:00,27.0,27.0,30.29,East,90,3.0,7.0,100,0.00,,,0.00,Weather View 32 v70,2013-11-18 13:00:00,
2013-11-18 06:05:00,26.0,26.0,30.29,East,90,4.0,7.0,100,0.00,,,0.00,Weather View 32 v70,2013-11-18 13:05:00,
2013-11-18 06:10:00,26.0,26.0,30.29,East,90,4.0,7.0,100,0.00,,,0.00,Weather View 32 v70,2013-11-18 13:10:00,
2013-11-18 06:15:00,26.0,26.0,30.29,East,90,3.0,7.0,100,0.00,,,0.00,Weather View 32 v70,2013-11-18 13:15:00,
2013-11-18 06:20:00,26.0,26.0,30.29,East,90,3.0,7.0,100,0.00,,,0.00,Weather View 32 v70,2013-11-18 13:20:00,
2013-11-18 06:25:00,26.0,26.0,30.29,East,90,5.0,7.0,100,0.00,,,0.00,Weather View 32 v70,2013-11-18 13:25:00,
2013-11-18 06:30:00,26.0,26.0,30.29,East,90,4.0,7.0,100,0.00,,,0.00,Weather View 32 v70,2013-11-18 13:30:00,
2013-11-18 06:35:00,26.0,26.0,30.30,East,90,5.0,7.0,100,0.00,,,0.00,Weather View 32 v70,2013-11-18 13:35:00,
2013-11-18 06:40:00,26.0,26.0,30.30,East,90,5.0,7.0,100,0.00,,,0.00,Weather View 32 v70,2013-11-18 13:40:00,
2013-11-18 06:45:00,26.0,26.0,30.30,East,90,9.0,9.0,100,0.00,,,0.00,Weather View 32 v70,2013-11-18 13:45:00,
2013-11-18 06:50:00,26.0,26.0,30.30,East,90,5.0,9.0,100,0.00,,,0.00,Weather View 32 v70,2013-11-18 13:50:00,
2013-11-18 06:55:00,26.0,26.0,30.30,East,90,4.0,9.0,100,0.00,,,0.00,Weather View 32 v70,2013-11-18 13:55:00,
2013-11-18 07:00:00,26.0,26.0,30.30,East,90,7.0,9.0,100,0.00,,,0.00,Weather View 32 v70,2013-11-18 14:00:00,
2013-11-18 07:05:00,26.0,26.0,30.30,ESE,112,7.0,9.0,100,0.00,,,0.00,Weather View 32 v70,2013-11-18 14:05:00,
2013-11-18 07:10:00,26.0,26.0,30.30,East,90,5.0,9.0,100,0.00,,,0.00,Weather View 32 v70,2013-11-18 14:10:00,
2013-11-18 07:15:00,26.0,26.0,30.30,East,90,5.0,9.0,100,0.00,,,0.00,Weather View 32 v70,2013-11-18 14:15:00,
2013-11-18 07:20:00,27.0,27.0,30.30,East,90,8.0,9.0,100,0.00,,,0.00,Weather View 32 v70,2013-11-18 14:20:00,
2013-11-18 07:25:00,27.0,27.0,30.30,East,90,7.0,9.0,100,0.00,,,0.00,Weather View 32 v70,2013-11-18 14:25:00,
2013-11-18 07:30:00,28.0,28.0,30.30,East,90,6.0,10.0,100,0.00,,,0.00,Weather View 32 v70,2013-11-18 14:30:00,
2013-11-18 07:35:00,28.0,27.3,30.31,East,90,6.0,10.0,97,0.00,,,0.00,Weather View 32 v70,2013-11-18 14:35:00,
2013-11-18 07:40:00,29.0,27.2,30.31,East,90,8.0,10.0,93,0.00,,,0.00,Weather View 32 v70,2013-11-18 14:40:00,
2013-11-18 07:45:00,29.0,26.4,30.30,East,90,8.0,10.0,90,0.00,,,0.00,Weather View 32 v70,2013-11-18 14:45:00,
2013-11-18 07:50:00,29.0,25.6,30.30,ENE,67,8.0,10.0,87,0.00,,,0.00,Weather View 32 v70,2013-11-18 14:50:00,
2013-11-18 07:55:00,30.0,26.0,30.30,ENE,67,7.0,10.0,85,0.00,,,0.00,Weather View 32 v70,2013-11-18 14:55:00,
2013-11-18 08:00:00,30.0,26.0,30.30,ENE,67,4.0,10.0,85,0.00,,,0.00,Weather View 32 v70,2013-11-18 15:00:00,
2013-11-18 08:05:00,31.0,26.7,30.30,SE,135,5.0,10.0,84,0.00,,,0.00,Weather View 32 v70,2013-11-18 15:05:00,
2013-11-18 08:10:00,32.0,26.2,30.30,SE,135,5.0,10.0,79,0.00,,,0.00,Weather View 32 v70,2013-11-18 15:10:00,
2013-11-18 08:15:00,33.0,26.3,30.30,SE,135,4.0,10.0,76,0.00,,,0.00,Weather View 32 v70,2013-11-18 15:15:00,
2013-11-18 08:20:00,34.0,25.9,30.30,SE,135,4.0,10.0,72,0.00,,,0.00,Weather View 32 v70,2013-11-18 15:20:00,
2013-11-18 08:25:00,34.0,25.6,30.30,SE,135,4.0,10.0,71,0.00,,,0.00,Weather View 32 v70,2013-11-18 15:25:00,
2013-11-18 08:30:00,35.0,25.9,30.30,SE,135,4.0,10.0,69,0.00,,,0.00,Weather View 32 v70,2013-11-18 15:30:00,
2013-11-18 08:35:00,35.0,25.5,30.31,SE,135,6.0,10.0,68,0.00,,,0.00,Weather View 32 v70,2013-11-18 15:35:00,
2013-11-18 08:40:00,36.0,26.1,30.31,SE,135,3.0,10.0,67,0.00,,,0.00,Weather View 32 v70,2013-11-18 15:40:00,
2013-11-18 08:45:00,36.0,26.1,30.31,East,90,7.0,10.0,67,0.00,,,0.00,Weather View 32 v70,2013-11-18 15:45:00,
2013-11-18 08:50:00,36.0,26.1,30.31,East,90,3.0,10.0,67,0.00,,,0.00,Weather View 32 v70,2013-11-18 15:50:00,
2013-11-18 08:51:00,36.0,26.1,30.31,East,90,2.0,10.0,67,0.00,,,0.00,Weather View 32 v70,2013-11-18 15:51:00,
2013-11-18 08:56:00,37.0,25.6,30.30,SE,135,2.0,9.0,63,0.00,,,0.00,Weather View 32 v70,2013-11-18 15:56:00,
2013-11-18 09:01:00,37.0,24.8,30.30,SE,135,4.0,8.0,61,0.00,,,0.00,Weather View 32 v70,2013-11-18 16:01:00,
2013-11-18 09:06:00,38.0,24.9,30.30,SSE,157,7.0,8.0,59,0.00,,,0.00,Weather View 32 v70,2013-11-18 16:06:00,
2013-11-18 09:11:00,38.0,24.5,30.30,SE,135,7.0,8.0,58,0.00,,,0.00,Weather View 32 v70,2013-11-18 16:11:00,
2013-11-18 09:16:00,38.0,24.5,30.30,SSE,157,3.0,8.0,58,0.00,,,0.00,Weather View 32 v70,2013-11-18 16:16:00,
2013-11-18 09:21:00,39.0,25.0,30.30,SE,135,5.0,8.0,57,0.00,,,0.00,Weather View 32 v70,2013-11-18 16:21:00,
2013-11-18 09:26:00,39.0,24.6,30.29,SE,135,6.0,8.0,56,0.00,,,0.00,Weather View 32 v70,2013-11-18 16:26:00,
2013-11-18 09:31:00,40.0,25.1,30.29,SE,135,2.0,8.0,55,0.00,,,0.00,Weather View 32 v70,2013-11-18 16:31:00,
2013-11-18 09:36:00,41.0,25.6,30.30,SE,135,2.0,8.0,54,0.00,,,0.00,Weather View 32 v70,2013-11-18 16:36:00,
2013-11-18 09:41:00,41.0,24.7,30.30,SSE,157,6.0,8.0,52,0.00,,,0.00,Weather View 32 v70,2013-11-18 16:41:00,
2013-11-18 09:46:00,42.0,25.6,30.29,South,180,5.0,8.0,52,0.00,,,0.00,Weather View 32 v70,2013-11-18 16:46:00,
2013-11-18 09:51:00,42.0,25.6,30.29,SE,135,5.0,8.0,52,0.00,,,0.00,Weather View 32 v70,2013-11-18 16:51:00,
2013-11-18 09:56:00,42.0,25.2,30.29,SE,135,3.0,8.0,51,0.00,,,0.00,Weather View 32 v70,2013-11-18 16:56:00,
2013-11-18 10:01:00,43.0,26.6,30.29,SE,135,6.0,8.0,52,0.00,,,0.00,Weather View 32 v70,2013-11-18 17:01:00,
2013-11-18 10:06:00,43.0,26.1,30.29,SSE,157,4.0,9.0,51,0.00,,,0.00,Weather View 32 v70,2013-11-18 17:06:00,
2013-11-18 10:11:00,43.0,26.1,30.29,ESE,112,4.0,9.0,51,0.00,,,0.00,Weather View 32 v70,2013-11-18 17:11:00,
2013-11-18 10:16:00,43.0,25.6,30.29,East,90,3.0,9.0,50,0.00,,,0.00,Weather View 32 v70,2013-11-18 17:16:00,
2013-11-18 10:21:00,44.0,26.5,30.29,ESE,112,7.0,9.0,50,0.00,,,0.00,Weather View 32 v70,2013-11-18 17:21:00,
2013-11-18 10:26:00,44.0,26.5,30.29,East,90,4.0,9.0,50,0.00,,,0.00,Weather View 32 v70,2013-11-18 17:26:00,
2013-11-18 10:31:00,45.0,27.5,30.29,SSE,157,3.0,9.0,50,0.00,,,0.00,Weather View 32 v70,2013-11-18 17:31:00,
2013-11-18 10:36:00,45.0,27.5,30.28,SSE,157,6.0,10.0,50,0.00,,,0.00,Weather View 32 v70,2013-11-18 17:36:00,
2013-11-18 10:41:00,45.0,27.5,30.28,SE,135,5.0,10.0,50,0.00,,,0.00,Weather View 32 v70,2013-11-18 17:41:00,
2013-11-18 10:46:00,46.0,27.4,30.28,ESE,112,5.0,10.0,48,0.00,,,0.00,Weather View 32 v70,2013-11-18 17:46:00,
2013-11-18 10:51:00,46.0,27.4,30.28,East,90,8.0,10.0,48,0.00,,,0.00,Weather View 32 v70,2013-11-18 17:51:00,
2013-11-18 10:56:00,46.0,27.9,30.28,East,90,7.0,10.0,49,0.00,,,0.00,Weather View 32 v70,2013-11-18 17:56:00,
2013-11-18 11:01:00,46.0,27.4,30.28,East,90,3.0,10.0,48,0.00,,,0.00,Weather View 32 v70,2013-11-18 18:01:00,
2013-11-18 11:06:00,47.0,27.8,30.28,East,90,4.0,10.0,47,0.00,,,0.00,Weather View 32 v70,2013-11-18 18:06:00,
2013-11-18 11:11:00,47.0,26.2,30.28,ESE,112,6.0,10.0,44,0.00,,,0.00,Weather View 32 v70,2013-11-18 18:11:00,
2013-11-18 11:16:00,48.0,26.5,30.27,East,90,5.0,10.0,43,0.00,,,0.00,Weather View 32 v70,2013-11-18 18:16:00,
2013-11-18 11:21:00,48.0,26.0,30.27,ESE,112,2.0,10.0,42,0.00,,,0.00,Weather View 32 v70,2013-11-18 18:21:00,
2013-11-18 11:26:00,49.0,26.9,30.27,East,90,4.0,10.0,42,0.00,,,0.00,Weather View 32 v70,2013-11-18 18:26:00,
2013-11-18 11:31:00,49.0,26.9,30.27,East,90,6.0,10.0,42,0.00,,,0.00,Weather View 32 v70,2013-11-18 18:31:00,
2013-11-18 11:36:00,49.0,26.9,30.26,SSW,202,5.0,9.0,42,0.00,,,0.00,Weather View 32 v70,2013-11-18 18:36:00,
2013-11-18 11:41:00,50.0,27.2,30.26,South,180,5.0,9.0,41,0.00,,,0.00,Weather View 32 v70,2013-11-18 18:41:00,
2013-11-18 11:46:00,50.0,26.6,30.25,South,180,8.0,9.0,40,0.00,,,0.00,Weather View 32 v70,2013-11-18 18:46:00,
2013-11-18 11:51:00,51.0,27.5,30.25,South,180,5.0,9.0,40,0.00,,,0.00,Weather View 32 v70,2013-11-18 18:51:00,
2013-11-18 11:56:00,51.0,27.5,30.25,SSE,157,7.0,9.0,40,0.00,,,0.00,Weather View 32 v70,2013-11-18 18:56:00,
2013-11-18 12:00:00,51.0,26.9,30.25,SSW,202,6.0,9.0,39,0.00,,,0.00,Weather View 32 v70,2013-11-18 19:00:00,
2013-11-18 12:05:00,51.0,26.2,30.24,SW,225,0.0,9.0,38,0.00,,,0.00,Weather View 32 v70,2013-11-18 19:05:00,
2013-11-18 12:10:00,51.0,26.2,30.24,SE,135,0.0,9.0,38,0.00,,,0.00,Weather View 32 v70,2013-11-18 19:10:00,
2013-11-18 12:15:00,52.0,26.5,30.23,SE,135,3.0,9.0,37,0.00,,,0.00,Weather View 32 v70,2013-11-18 19:15:00,
2013-11-18 12:20:00,52.0,25.8,30.23,SSW,202,3.0,9.0,36,0.00,,,0.00,Weather View 32 v70,2013-11-18 19:20:00,
2013-11-18 12:25:00,53.0,26.7,30.23,SW,225,3.0,9.0,36,0.00,,,0.00,Weather View 32 v70,2013-11-18 19:25:00,
2013-11-18 12:30:00,53.0,27.4,30.23,NNE,22,3.0,9.0,37,0.00,,,0.00,Weather View 32 v70,2013-11-18 19:30:00,
2013-11-18 12:35:00,52.0,27.8,30.23,SSE,157,3.0,9.0,39,0.00,,,0.00,Weather View 32 v70,2013-11-18 19:35:00,
2013-11-18 12:40:00,53.0,28.0,30.23,SSE,157,5.0,9.0,38,0.00,,,0.00,Weather View 32 v70,2013-11-18 19:40:00,
2013-11-18 12:45:00,53.0,27.4,30.22,South,180,2.0,10.0,37,0.00,,,0.00,Weather View 32 v70,2013-11-18 19:45:00,
2013-11-18 12:50:00,53.0,27.4,30.22,SW,225,3.0,10.0,37,0.00,,,0.00,Weather View 32 v70,2013-11-18 19:50:00,
2013-11-18 12:55:00,53.0,28.0,30.21,North,360,3.0,10.0,38,0.00,,,0.00,Weather View 32 v70,2013-11-18 19:55:00,
2013-11-18 13:00:00,53.0,27.4,30.21,SSE,157,4.0,10.0,37,0.00,,,0.00,Weather View 32 v70,2013-11-18 20:00:00,
2013-11-18 13:05:00,53.0,26.7,30.21,SE,135,2.0,10.0,36,0.00,,,0.00,Weather View 32 v70,2013-11-18 20:05:00,
2013-11-18 13:10:00,53.0,26.0,30.21,NW,315,5.0,10.0,35,0.00,,,0.00,Weather View 32 v70,2013-11-18 20:10:00,
2013-11-18 13:15:00,53.0,26.7,30.20,North,360,5.0,10.0,36,0.00,,,0.00,Weather View 32 v70,2013-11-18 20:15:00,
2013-11-18 13:20:00,53.0,26.7,30.20,North,360,3.0,10.0,36,0.00,,,0.00,Weather View 32 v70,2013-11-18 20:20:00,
2013-11-18 13:25:00,53.0,28.0,30.19,WNW,292,4.0,10.0,38,0.00,,,0.00,Weather View 32 v70,2013-11-18 20:25:00,
2013-11-18 13:30:00,53.0,27.4,30.19,North,360,3.0,10.0,37,0.00,,,0.00,Weather View 32 v70,2013-11-18 20:30:00,
2013-11-18 13:35:00,53.0,27.4,30.19,WNW,292,5.0,10.0,37,0.00,,,0.00,Weather View 32 v70,2013-11-18 20:35:00,
2013-11-18 13:40:00,54.0,28.9,30.19,West,270,6.0,10.0,38,0.00,,,0.00,Weather View 32 v70,2013-11-18 20:40:00,
2013-11-18 13:45:00,54.0,26.9,30.18,NW,315,2.0,9.0,35,0.00,,,0.00,Weather View 32 v70,2013-11-18 20:45:00,
2013-11-18 13:50:00,54.0,27.6,30.18,NW,315,7.0,12.0,36,0.00,,,0.00,Weather View 32 v70,2013-11-18 20:50:00,
2013-11-18 13:55:00,55.0,26.4,30.17,South,180,7.0,12.0,33,0.00,,,0.00,Weather View 32 v70,2013-11-18 20:55:00,
2013-11-18 14:00:00,55.0,26.4,30.17,South,180,3.0,12.0,33,0.00,,,0.00,Weather View 32 v70,2013-11-18 21:00:00,
2013-11-18 14:05:00,55.0,26.4,30.18,SW,225,6.0,12.0,33,0.00,,,0.00,Weather View 32 v70,2013-11-18 21:05:00,
2013-11-18 14:10:00,55.0,25.6,30.18,South,180,3.0,12.0,32,0.00,,,0.00,Weather View 32 v70,2013-11-18 21:10:00,
2013-11-18 14:15:00,55.0,25.6,30.17,SE,135,1.0,12.0,32,0.00,,,0.00,Weather View 32 v70,2013-11-18 21:15:00,
2013-11-18 14:20:00,56.0,26.5,30.17,NW,315,1.0,12.0,32,0.00,,,0.00,Weather View 32 v70,2013-11-18 21:20:00,
2013-11-18 14:25:00,56.0,27.2,30.16,West,270,4.0,12.0,33,0.00,,,0.00,Weather View 32 v70,2013-11-18 21:25:00,
2013-11-18 14:30:00,56.0,26.5,30.16,SW,225,6.0,12.0,32,0.00,,,0.00,Weather View 32 v70,2013-11-18 21:30:00,
2013-11-18 14:35:00,56.0,26.5,30.16,WSW,247,5.0,12.0,32,0.00,,,0.00,Weather View 32 v70,2013-11-18 21:35:00,
2013-11-18 14:40:00,56.0,24.9,30.16,WSW,247,3.0,12.0,30,0.00,,,0.00,Weather View 32 v70,2013-11-18 21:40:00,
2013-11-18 14:45:00,56.0,24.1,30.16,SW,225,0.0,12.0,29,0.00,,,0.00,Weather View 32 v70,2013-11-18 21:45:00,
2013-11-18 14:50:00,56.0,25.7,30.16,NW,315,3.0,10.0,31,0.00,,,0.00,Weather View 32 v70,2013-11-18 21:50:00,
2013-11-18 14:55:00,56.0,26.5,30.16,NW,315,3.0,10.0,32,0.00,,,0.00,Weather View 32 v70,2013-11-18 21:55:00,
2013-11-18 15:00:00,56.0,26.5,30.16,NW,315,0.0,10.0,32,0.00,,,0.00,Weather View 32 v70,2013-11-18 22:00:00,
2013-11-18 15:06:00,57.0,26.6,30.16,NW,315,6.0,10.0,31,0.00,,,0.00,Weather View 32 v70,2013-11-18 22:06:00,
2013-11-18 15:11:00,57.0,26.6,30.16,West,270,2.0,8.0,31,0.00,,,0.00,Weather View 32 v70,2013-11-18 22:11:00,
2013-11-18 15:16:00,57.0,27.4,30.15,West,270,5.0,8.0,32,0.00,,,0.00,Weather View 32 v70,2013-11-18 22:16:00,
2013-11-18 15:21:00,57.0,26.6,30.15,NW,315,5.0,8.0,31,0.00,,,0.00,Weather View 32 v70,2013-11-18 22:21:00,
2013-11-18 15:26:00,57.0,26.6,30.15,NW,315,3.0,8.0,31,0.00,,,0.00,Weather View 32 v70,2013-11-18 22:26:00,
2013-11-18 15:31:00,56.0,25.7,30.15,North,360,6.0,8.0,31,0.00,,,0.00,Weather View 32 v70,2013-11-18 22:31:00,
2013-11-18 15:36:00,56.0,24.9,30.15,NW,315,6.0,8.0,30,0.00,,,0.00,Weather View 32 v70,2013-11-18 22:36:00,
2013-11-18 15:41:00,56.0,26.5,30.15,NW,315,3.0,8.0,32,0.00,,,0.00,Weather View 32 v70,2013-11-18 22:41:00,
2013-11-18 15:46:00,55.0,25.6,30.15,NW,315,4.0,8.0,32,0.00,,,0.00,Weather View 32 v70,2013-11-18 22:46:00,
2013-11-18 15:51:00,55.0,25.6,30.15,NW,315,0.0,8.0,32,0.00,,,0.00,Weather View 32 v70,2013-11-18 22:51:00,
2013-11-18 15:56:00,55.0,25.6,30.15,NNE,22,3.0,8.0,32,0.00,,,0.00,Weather View 32 v70,2013-11-18 22:56:00,
2013-11-18 16:01:00,55.0,26.4,30.15,West,270,3.0,8.0,33,0.00,,,0.00,Weather View 32 v70,2013-11-18 23:01:00,
2013-11-18 16:06:00,55.0,26.4,30.15,WSW,247,3.0,8.0,33,0.00,,,0.00,Weather View 32 v70,2013-11-18 23:06:00,
2013-11-18 16:11:00,55.0,25.6,30.15,WSW,247,2.0,8.0,32,0.00,,,0.00,Weather View 32 v70,2013-11-18 23:11:00,
2013-11-18 16:16:00,55.0,26.4,30.15,WSW,247,1.0,8.0,33,0.00,,,0.00,Weather View 32 v70,2013-11-18 23:16:00,
2013-11-18 16:21:00,55.0,25.6,30.15,WNW,292,3.0,8.0,32,0.00,,,0.00,Weather View 32 v70,2013-11-18 23:21:00,
2013-11-18 16:26:00,55.0,25.6,30.15,NW,315,4.0,8.0,32,0.00,,,0.00,Weather View 32 v70,2013-11-18 23:26:00,
2013-11-18 16:31:00,55.0,26.4,30.15,NW,315,2.0,8.0,33,0.00,,,0.00,Weather View 32 v70,2013-11-18 23:31:00,
2013-11-18 16:36:00,54.0,25.5,30.15,NW,315,0.0,7.0,33,0.00,,,0.00,Weather View 32 v70,2013-11-18 23:36:00,
2013-11-18 16:41:00,54.0,25.5,30.15,NW,315,0.0,7.0,33,0.00,,,0.00,Weather View 32 v70,2013-11-18 23:41:00,
2013-11-18 16:46:00,54.0,25.5,30.16,NW,315,0.0,7.0,33,0.00,,,0.00,Weather View 32 v70,2013-11-18 23:46:00,
2013-11-18 16:51:00,54.0,26.2,30.16,NW,315,2.0,7.0,34,0.00,,,0.00,Weather View 32 v70,2013-11-18 23:51:00,
2013-11-18 16:56:00,53.0,26.0,30.16,NW,315,1.0,5.0,35,0.00,,,0.00,Weather View 32 v70,2013-11-18 23:56:00,
2013-11-18 17:01:00,53.0,26.7,30.16,NW,315,1.0,5.0,36,0.00,,,0.00,Weather View 32 v70,2013-11-19 00:01:00,
2013-11-18 17:06:00,52.0,26.5,30.16,NW,315,2.0,5.0,37,0.00,,,0.00,Weather View 32 v70,2013-11-19 00:06:00,
2013-11-18 17:11:00,51.0,26.2,30.16,NW,315,3.0,5.0,38,0.00,,,0.00,Weather View 32 v70,2013-11-19 00:11:00,
2013-11-18 17:16:00,51.0,26.9,30.17,NW,315,1.0,5.0,39,0.00,,,0.00,Weather View 32 v70,2013-11-19 00:16:00,
2013-11-18 17:21:00,50.0,25.3,30.17,NW,315,2.0,5.0,38,0.00,,,0.00,Weather View 32 v70,2013-11-19 00:21:00,
2013-11-18 17:26:00,50.0,26.0,30.17,NW,315,3.0,5.0,39,0.00,,,0.00,Weather View 32 v70,2013-11-19 00:26:00,
2013-11-18 17:31:00,49.0,25.7,30.17,NW,315,2.0,4.0,40,0.00,,,0.00,Weather View 32 v70,2013-11-19 00:31:00,
2013-11-18 17:36:00,49.0,26.3,30.17,NW,315,0.0,4.0,41,0.00,,,0.00,Weather View 32 v70,2013-11-19 00:36:00,
2013-11-18 17:41:00,48.0,26.0,30.17,NW,315,1.0,4.0,42,0.00,,,0.00,Weather View 32 v70,2013-11-19 00:41:00,
2013-11-18 17:46:00,48.0,26.0,30.18,NW,315,1.0,4.0,42,0.00,,,0.00,Weather View 32 v70,2013-11-19 00:46:00,
2013-11-18 17:51:00,48.0,27.6,30.18,NW,315,1.0,4.0,45,0.00,,,0.00,Weather View 32 v70,2013-11-19 00:51:00,
2013-11-18 17:56:00,47.0,26.2,30.17,NW,315,1.0,4.0,44,0.00,,,0.00,Weather View 32 v70,2013-11-19 00:56:00,
2013-11-18 18:01:00,47.0,26.7,30.17,NW,315,0.0,4.0,45,0.00,,,0.00,Weather View 32 v70,2013-11-19 01:01:00,
2013-11-18 18:06:00,46.0,26.9,30.18,NW,315,2.0,3.0,47,0.00,,,0.00,Weather View 32 v70,2013-11-19 01:06:00,
2013-11-18 18:11:00,46.0,26.9,30.18,NW,315,2.0,3.0,47,0.00,,,0.00,Weather View 32 v70,2013-11-19 01:11:00,
2013-11-18 18:16:00,45.0,26.0,30.18,NW,315,3.0,3.0,47,0.00,,,0.00,Weather View 32 v70,2013-11-19 01:16:00,
2013-11-18 18:21:00,45.0,26.0,30.18,NW,315,3.0,4.0,47,0.00,,,0.00,Weather View 32 v70,2013-11-19 01:21:00,
2013-11-18 18:26:00,45.0,26.5,30.18,NW,315,1.0,4.0,48,0.00,,,0.00,Weather View 32 v70,2013-11-19 01:26:00,
2013-11-18 18:31:00,45.0,26.5,30.18,NW,315,0.0,4.0,48,0.00,,,0.00,Weather View 32 v70,2013-11-19 01:31:00,
2013-11-18 18:36:00,44.0,26.0,30.18,NW,315,0.0,4.0,49,0.00,,,0.00,Weather View 32 v70,2013-11-19 01:36:00,
2013-11-18 18:41:00,44.0,27.9,30.18,NW,315,0.0,4.0,53,0.00,,,0.00,Weather View 32 v70,2013-11-19 01:41:00,
2013-11-18 18:44:00,43.0,27.0,30.18,NW,315,0.0,4.0,53,0.00,,,0.00,Weather View 32 v70,2013-11-19 01:44:00,
2013-11-18 18:49:00,43.0,27.0,30.18,NW,315,0.0,4.0,53,0.00,,,0.00,Weather View 32 v70,2013-11-19 01:49:00,
2013-11-18 18:54:00,43.0,26.6,30.18,NW,315,0.0,4.0,52,0.00,,,0.00,Weather View 32 v70,2013-11-19 01:54:00,
2013-11-18 18:59:00,42.0,25.6,30.19,NW,315,0.0,4.0,52,0.00,,,0.00,Weather View 32 v70,2013-11-19 01:59:00,
2013-11-18 19:04:00,42.0,26.5,30.19,NW,315,0.0,4.0,54,0.00,,,0.00,Weather View 32 v70,2013-11-19 02:04:00,
2013-11-18 19:09:00,42.0,27.0,30.18,NW,315,0.0,4.0,55,0.00,,,0.00,Weather View 32 v70,2013-11-19 02:09:00,
2013-11-18 19:14:00,42.0,27.4,30.18,NW,315,0.0,4.0,56,0.00,,,0.00,Weather View 32 v70,2013-11-19 02:14:00,
2013-11-18 19:19:00,41.0,26.5,30.19,NW,315,0.0,4.0,56,0.00,,,0.00,Weather View 32 v70,2013-11-19 02:19:00,
2013-11-18 19:24:00,41.0,26.9,30.19,NW,315,0.0,3.0,57,0.00,,,0.00,Weather View 32 v70,2013-11-19 02:24:00,
2013-11-18 19:29:00,41.0,26.9,30.19,NW,315,0.0,2.0,57,0.00,,,0.00,Weather View 32 v70,2013-11-19 02:29:00,
2013-11-18 19:34:00,41.0,26.9,30.19,NW,315,0.0,0.0,57,0.00,,,0.00,Weather View 32 v70,2013-11-19 02:34:00,
2013-11-18 19:39:00,41.0,26.9,30.19,NW,315,0.0,0.0,57,0.00,,,0.00,Weather View 32 v70,2013-11-19 02:39:00,
2013-11-18 19:43:00,41.0,27.8,30.19,NW,315,0.0,0.0,59,0.00,,,0.00,Weather View 32 v70,2013-11-19 02:43:00,
2013-11-18 19:48:00,40.0,26.4,30.19,NW,315,0.0,0.0,58,0.00,,,0.00,Weather View 32 v70,2013-11-19 02:48:00,
2013-11-18 19:53:00,40.0,26.4,30.19,NW,315,0.0,0.0,58,0.00,,,0.00,Weather View 32 v70,2013-11-19 02:53:00,
2013-11-18 19:58:00,40.0,26.4,30.20,NW,315,0.0,0.0,58,0.00,,,0.00,Weather View 32 v70,2013-11-19 02:58:00,
2013-11-18 20:04:00,40.0,26.4,30.20,NW,315,0.0,0.0,58,0.00,,,0.00,Weather View 32 v70,2013-11-19 03:04:00,
2013-11-18 20:09:00,40.0,26.4,30.19,NW,315,0.0,0.0,58,0.00,,,0.00,Weather View 32 v70,2013-11-19 03:09:00,
2013-11-18 20:14:00,40.0,26.0,30.19,NW,315,0.0,1.0,57,0.00,,,0.00,Weather View 32 v70,2013-11-19 03:14:00,
2013-11-18 20:19:00,40.0,26.0,30.20,NW,315,0.0,1.0,57,0.00,,,0.00,Weather View 32 v70,2013-11-19 03:19:00,
2013-11-18 20:24:00,39.0,25.5,30.20,NW,315,0.0,1.0,58,0.00,,,0.00,Weather View 32 v70,2013-11-19 03:24:00,
2013-11-18 20:29:00,39.0,26.3,30.20,NW,315,0.0,1.0,60,0.00,,,0.00,Weather View 32 v70,2013-11-19 03:29:00,
2013-11-18 20:34:00,39.0,26.3,30.20,NW,315,0.0,1.0,60,0.00,,,0.00,Weather View 32 v70,2013-11-19 03:34:00,
2013-11-18 20:39:00,39.0,26.3,30.21,NW,315,0.0,1.0,60,0.00,,,0.00,Weather View 32 v70,2013-11-19 03:39:00,
2013-11-18 20:44:00,38.0,26.1,30.21,North,360,1.0,1.0,62,0.00,,,0.00,Weather View 32 v70,2013-11-19 03:44:00,
2013-11-18 20:49:00,38.0,25.7,30.20,North,360,3.0,4.0,61,0.00,,,0.00,Weather View 32 v70,2013-11-19 03:49:00,
2013-11-18 20:54:00,38.0,25.7,30.20,North,360,2.0,4.0,61,0.00,,,0.00,Weather View 32 v70,2013-11-19 03:54:00,
2013-11-18 20:59:00,38.0,25.7,30.20,North,360,2.0,4.0,61,0.00,,,0.00,Weather View 32 v70,2013-11-19 03:59:00,
2013-11-18 21:04:00,37.0,24.8,30.20,North,360,0.0,4.0,61,0.00,,,0.00,Weather View 32 v70,2013-11-19 04:04:00,
2013-11-18 21:07:00,37.0,25.2,30.20,North,360,0.0,4.0,62,0.00,,,0.00,Weather View 32 v70,2013-11-19 04:07:00,
2013-11-18 21:12:00,37.0,25.6,30.20,North,360,0.0,4.0,63,0.00,,,0.00,Weather View 32 v70,2013-11-19 04:12:00,
2013-11-18 21:17:00,37.0,25.6,30.20,North,360,3.0,4.0,63,0.00,,,0.00,Weather View 32 v70,2013-11-19 04:17:00,
2013-11-18 21:22:00,37.0,25.6,30.20,North,360,0.0,4.0,63,0.00,,,0.00,Weather View 32 v70,2013-11-19 04:22:00,
2013-11-18 21:27:00,36.0,25.0,30.21,SE,135,5.0,6.0,64,0.00,,,0.00,Weather View 32 v70,2013-11-19 04:27:00,
2013-11-18 21:32:00,36.0,25.0,30.21,SE,135,6.0,8.0,64,0.00,,,0.00,Weather View 32 v70,2013-11-19 04:32:00,
2013-11-18 21:37:00,36.0,24.2,30.22,East,90,4.0,9.0,62,0.00,,,0.00,Weather View 32 v70,2013-11-19 04:37:00,
2013-11-18 21:42:00,36.0,24.2,30.22,East,90,3.0,9.0,62,0.00,,,0.00,Weather View 32 v70,2013-11-19 04:42:00,
2013-11-18 21:47:00,36.0,24.2,30.22,East,90,4.0,9.0,62,0.00,,,0.00,Weather View 32 v70,2013-11-19 04:47:00,
2013-11-18 21:52:00,36.0,24.2,30.22,ENE,67,7.0,9.0,62,0.00,,,0.00,Weather View 32 v70,2013-11-19 04:52:00,
2013-11-18 21:57:00,36.0,24.2,30.21,ENE,67,6.0,9.0,62,0.00,,,0.00,Weather View 32 v70,2013-11-19 04:57:00,
2013-11-18 22:01:00,35.0,23.7,30.21,ENE,67,4.0,9.0,63,0.00,,,0.00,Weather View 32 v70,2013-11-19 05:01:00,
2013-11-18 22:06:00,35.0,24.0,30.22,ENE,67,7.0,9.0,64,0.00,,,0.00,Weather View 32 v70,2013-11-19 05:06:00,
2013-11-18 22:11:00,35.0,24.0,30.22,ENE,67,4.0,9.0,64,0.00,,,0.00,Weather View 32 v70,2013-11-19 05:11:00,
2013-11-18 22:16:00,35.0,24.0,30.21,ENE,67,6.0,9.0,64,0.00,,,0.00,Weather View 32 v70,2013-11-19 05:16:00,
2013-11-18 22:21:00,35.0,24.0,30.21,ENE,67,5.0,9.0,64,0.00,,,0.00,Weather View 32 v70,2013-11-19 05:21:00,
2013-11-18 22:26:00,35.0,24.4,30.21,ENE,67,6.0,9.0,65,0.00,,,0.00,Weather View 32 v70,2013-11-19 05:26:00,
2013-11-18 22:31:00,35.0,24.4,30.21,East,90,8.0,9.0,65,0.00,,,0.00,Weather View 32 v70,2013-11-19 05:31:00,
2013-11-18 22:36:00,35.0,24.4,30.21,East,90,8.0,9.0,65,0.00,,,0.00,Weather View 32 v70,2013-11-19 05:36:00,
2013-11-18 22:41:00,35.0,24.8,30.21,East,90,7.0,9.0,66,0.00,,,0.00,Weather View 32 v70,2013-11-19 05:41:00,
2013-11-18 22:46:00,35.0,24.8,30.20,East,90,6.0,9.0,66,0.00,,,0.00,Weather View 32 v70,2013-11-19 05:46:00,
2013-11-18 22:51:00,35.0,25.1,30.20,ENE,67,7.0,9.0,67,0.00,,,0.00,Weather View 32 v70,2013-11-19 05:51:00,
2013-11-18 22:56:00,34.0,24.2,30.20,ENE,67,7.0,9.0,67,0.00,,,0.00,Weather View 32 v70,2013-11-19 05:56:00,
2013-11-18 23:01:00,34.0,24.2,30.20,ENE,67,5.0,9.0,67,0.00,,,0.00,Weather View 32 v70,2013-11-19 06:01:00,
2013-11-18 23:06:00,34.0,24.5,30.20,ENE,67,3.0,9.0,68,0.00,,,0.00,Weather View 32 v70,2013-11-19 06:06:00,
2013-11-18 23:11:00,34.0,24.9,30.20,East,90,5.0,9.0,69,0.00,,,0.00,Weather View 32 v70,2013-11-19 06:11:00,
2013-11-18 23:16:00,34.0,24.9,30.21,East,90,6.0,9.0,69,0.00,,,0.00,Weather View 32 v70,2013-11-19 06:16:00,
2013-11-18 23:21:00,34.0,25.2,30.21,East,90,7.0,9.0,70,0.00,,,0.00,Weather View 32 v70,2013-11-19 06:21:00,
2013-11-18 23:26:00,33.0,24.6,30.20,East,90,5.0,9.0,71,0.00,,,0.00,Weather View 32 v70,2013-11-19 06:26:00,
2013-11-18 23:31:00,33.0,24.6,30.20,East,90,5.0,9.0,71,0.00,,,0.00,Weather View 32 v70,2013-11-19 06:31:00,
2013-11-18 23:36:00,33.0,24.6,30.20,East,90,6.0,9.0,71,0.00,,,0.00,Weather View 32 v70,2013-11-19 06:36:00,
2013-11-18 23:41:00,33.0,25.0,30.20,East,90,6.0,9.0,72,0.00,,,0.00,Weather View 32 v70,2013-11-19 06:41:00,
2013-11-18 23:46:00,33.0,25.0,30.20,East,90,3.0,9.0,72,0.00,,,0.00,Weather View 32 v70,2013-11-19 06:46:00,
2013-11-18 23:51:00,32.0,24.0,30.20,SE,135,4.0,9.0,72,0.00,,,0.00,Weather View 32 v70,2013-11-19 06:51:00,
2013-11-18 23:56:00,32.0,24.3,30.19,SE,135,3.0,9.0,73,0.00,,,0.00,Weather View 32 v70,2013-11-19 06:56:00,